Location: Poprad
(49.0500°N, 20.3000°E)
Time: 11:31:12
(UTC+01:00)

ISS - Pass Details

Date: 02 February 2021
Orbit: 417 x 422 km, 51.6° (Epoch: 07 March)

Event Time Altitude Azimuth Distance (km) Brightness Sun altitude
Rises 19:43:32 0° 282° (WNW) 2,374 1.3 -30.5°
Reaches altitude 10° 19:46:34 10° 252° (WSW) 1,505 -0.3 -31.0°
Enters shadow 19:46:41 10° 250° (WSW) 1,486 -0.3 -31.0°
